STARLINK-2249, 48592

Orbit data source: Space-Track

STARLINK-2249, 48592 is a payload satellite owned by SpaceX/Seattle (US) in LEO that was launched on Sat, 15 May 2021 UTC via an FALCON 9 launch vehicle from the Air Force Eastern Test Range (AFETR). Payload-class satellites include a variety of spacecraft equipped with specific instruments for various scientific and technological missions. These include communications satellites like Starlink; space stations such as the ISS; scientific satellites like the Hubble; Earth observation satellites from companies like Planet Labs, Umbra, and HawkEye 360; GPS; miniature CubeSats for education and research; and military/defense satellites.

Loading next visibility...
Identifier
48592, 2021-041AR
Orbit
LEO
Country
Flag of USUS
Related business
Manufacturer
SpaceX/Seattle
Mission
Operational Commercial Communications
Bus & Motor
STARLINK, Unknown motor
Mass
260 kg wet, ~248 kg dry
Launch date (UTC)
2021-05-15 (5 years ago)
Launch vehicle
FALCON 9
Launch site
Air Force Eastern Test Range (AFETR)
Object type
Payload
Rocket body
Debris
Shape & HBR
Box + 1 Pan, 10.1 m
Radar Cross Section
13.562 m², Large (>1 m²)

Expand to show TLE details & history
Last TLE update: 22 hours ago

TLE from 22 hours ago
0 STARLINK-2249
1 48592U 21041AR  25348.87538922  .00000539  00000-0  55087-4 0  9998
2 48592  53.0550 162.5913 0001335  89.5305 270.5837 15.06394158252279
Epoch: 2025-12-14T21:00Z
TLE epoch observation values (Epoch: 2025-12-14T21:00:33.628Z)
Latitude
-0.00003°
Longitude
123.66913°
Altitude
548.099 km
Speed
7.589 km/s
True Right ascension
10h 50m 21s
True Declination
0° 00' 00"
Sunlit
Object was in daylight at epoch
Visualization orbit readout
Latitude
Unknown
Longitude
Unknown
Altitude
Unknown
Speed
Unknown
Apparent Right ascension
Unknown
Apparent Declination
Unknown
Sunlit
N/A
Visualization observer readout
Local Sidereal Time
17:25:42
Azimuth
Unknown
Elevation
Unknown
Doppler factor
Unknown
Orbital elements
Apogee altitude
548.425 km
Perigee altitude
546.576 km
Semi-major axis
6,925.637 km
Eccentricity
0.00013
Inclination
53.055°
RAAN
162.5913°
Arg. of periapsis
89.5305°
True anomaly
270.5684°
Mean anomaly
270.5837°
Eccentric anomaly
270.57605°
Mean motion
3.76577 °/min
Orbital period
95.6 mins
BSTAR
0.000055087
Loading maneuver chart data...
Computing Atmospheric mass density...
Loading historical data...
Loading historical data...
Loading historical data...
Loading historical data...
Loading historical data...
Loading historical data...
Loading historical data...

Documentation

Showing up to 5 results
|